This is the latest recevied weather packets stored in our database for station/object VE6EN. If no packets are shown the sender has not sent any weather packets the latest 10 day(s).
| Time | Temp. | Humidity | Pressure | Rain* | Wind** | Luminosity | Snow |
|---|---|---|---|---|---|---|---|
| 1777938599 | 11.67° C | 27% | 1014.3 hPa | 0 mm | - | - | - |
| 1777938000 | 11.67° C | 27% | 1014.3 hPa | 0 mm | - | - | - |
| 1777937404 | 12.22° C | 27% | 1014.3 hPa | 0 mm | - | - | - |
| 1777936804 | 12.22° C | 28% | 1014.2 hPa | 0 mm | - | - | - |
| 1777936199 | 11.67° C | 26% | 1014.2 hPa | 0 mm | - | - | - |
| 1777935602 | 11.67° C | 27% | 1014.3 hPa | 0 mm | - | - | - |
| 1777934999 | 11.67° C | 26% | 1014.2 hPa | 0 mm | - | - | - |
| 1777934404 | 12.22° C | 25% | 1014.1 hPa | 0 mm | - | - | - |
| 1777933799 | 12.22° C | 26% | 1014.1 hPa | 0 mm | - | - | - |
| 1777933199 | 12.78° C | 25% | 1014.3 hPa | 0 mm | - | - | - |
| 1777932600 | 13.33° C | 26% | 1014.3 hPa | 0 mm | - | - | - |
| 1777932006 | 13.33° C | 25% | 1014.4 hPa | 0 mm | - | - | - |
| 1777931400 | 12.22° C | 27% | 1014.4 hPa | 0 mm | - | - | - |
| 1777930804 | 11.67° C | 27% | 1014.4 hPa | 0 mm | - | - | - |
| 1777930199 | 11.67° C | 26% | 1014.5 hPa | 0 mm | - | - | - |
| 1777929599 | 11.67° C | 28% | 1014.6 hPa | 0 mm | - | - | - |
| 1777928999 | 11.67° C | 26% | 1014.7 hPa | 0 mm | - | - | - |
| 1777928402 | 11.67° C | 27% | 1014.7 hPa | 0 mm | - | - | - |
| 1777927800 | 11.67° C | 27% | 1014.7 hPa | 0 mm | - | - | - |
| 1777927200 | 12.22° C | 26% | 1014.8 hPa | 0 mm | - | - | - |
| 1777926600 | 12.22° C | 25% | 1014.9 hPa | 0 mm | - | - | - |
| 1777926002 | 12.78° C | 24% | 1014.8 hPa | 0 mm | - | - | - |
| 1777925404 | 12.78° C | 26% | 1014.8 hPa | 0 mm | - | - | - |
| 1777924804 | 12.22° C | 26% | 1014.9 hPa | 0 mm | - | - | - |
| 1777924199 | 12.22° C | 27% | 1014.9 hPa | 0 mm | - | - | - |
* Rain latest hour (hover to see other rain measurements)
** Current wind speed in m/s (hover to see current wind gust speed)